Showing default

OPS 1593 (TRANSIT 11), 1952

Orbit data source: Space-Track

OPS 1593 (TRANSIT 11), 1952 is a payload satellite owned by USN BuWeps (US) in LEO that was launched on Fri, 28 Jan 1966 UTC via an SCOUT A launch vehicle from the Air Force Western Test Range (AFWTR). Payload-class satellites include a variety of spacecraft equipped with specific instruments for various scientific and technological missions. These include communications satellites like Starlink; space stations such as the ISS; scientific satellites like the Hubble; Earth observation satellites from companies like Planet Labs, Umbra, and HawkEye 360; GPS; miniature CubeSats for education and research; and military/defense satellites.

Loading next visibility...
Identifier
1952, 1966-005A
Orbit
LEO
Country
Flag of USUS
Related business
Manufacturer
NAFI
Mission
Defense Navigation
Bus & Motor
TRANSIT 5, Unknown motor
Mass
~50 kg wet, ~50 kg dry
Launch date (UTC)
1966-01-28 (60 years ago)
Launch vehicle
SCOUT A
Launch site
Air Force Western Test Range (AFWTR)
Object type
Payload
Rocket body
Debris
Shape & HBR
Oct Cyl + 4 Pan + 1 Rod, Unknown HBR
Radar Cross Section
7.565 m², Large (>1 m²)

Expand to show TLE details & history
Last TLE update: 8 hours ago

TLE from 8 hours ago
0 OPS 1593 (TRANSIT 11)
1 01952U 66005A   25261.19866606  .00000135  00000-0  12300-3 0  9990
2 01952  90.1567 347.5977 0219368 110.3393 252.1486 13.68018099968969
Epoch: 2025-09-18T04:46Z
TLE epoch observation values (Epoch: 2025-09-18T04:46:04.747Z)
Latitude
-0.00001°
Longitude
-81.28578°
Altitude
1,062.536 km
Speed
7.294 km/s
True Right ascension
23h 10m 23s
True Declination
0° 00' 00"
Sunlit
Object was in full shadow at epoch
Visualization orbit readout
Latitude
Unknown
Longitude
Unknown
Altitude
Unknown
Speed
Unknown
Apparent Right ascension
Unknown
Apparent Declination
Unknown
Sunlit
N/A
Visualization observer readout
Local Sidereal Time
05:12:33
Azimuth
Unknown
Elevation
Unknown
Doppler factor
Unknown
Orbital elements
Apogee altitude
1,165.651 km
Perigee altitude
841.782 km
Semi-major axis
7,381.853 km
Eccentricity
0.02194
Inclination
90.1567°
RAAN
347.5977°
Arg. of periapsis
110.3393°
True anomaly
249.77648°
Mean anomaly
252.1486°
Eccentric anomaly
250.96047°
Mean motion
3.42212 °/min
Orbital period
105.2 mins
BSTAR
0.000123
Loading maneuver chart data...
Computing Atmospheric mass density...
Loading historical data...
Loading historical data...
Loading historical data...
Loading historical data...
Loading historical data...
Loading historical data...
Loading historical data...

Documentation

Showing up to 5 results
|